Location: Zagreb
(45.8000°N, 16.0000°E)
Time: 01:24:45
(UTC+01:00)

NO-84 - Pass Details

Date: 04 November 2020
Orbit: 323 x 458 km, 55.0° (Epoch: 25 November)

Event Time Altitude Azimuth Distance (km) Brightness Sun altitude
Exits shadow 04:20:10 14° 27° (NNE) 1,216 ? -24.8°
Drops below altitude 10° 04:21:12 10° 45° (NE) 1,436 ? -24.6°
Sets 04:23:45 0° 67° (ENE) 2,256 ? -24.2°
